Погода в Куракине

Россия / Республика Мордовия     54°57′35″N   46°08′05″E
В апреле 2022 года жителям России запретили посещать сайт meteo.paraplan.net по решению Генеральной прокуратуры. Аудитория сайта уменьшилась в 10 раз. Владельцы сайта не видят смысла в поддержке погодного сервера в таких условиях. Сайт будет закрыт в октябре.
темп.,
°C
ветер,
м/с
пор.,
м/с
влажн.,
%
обл.,
%
осадки,
мм/ч
давл.,
гПа
погр.,
м
29 сентября, чт
чт2900:00+10юв51093100 1.1 1006390
03:00+10юв4994100 1.3 1006319
06:00+10вюв3596100 0.0 1006176
09:00+11в1294100 0.0 1007111
12:00+12в1286100 0.0 1009263
15:00+12ссз1289100 0.0 101092
18:00+11с119399 0.0 101311
21:00+12с1193100 0.1 101517
30 сентября, пт
пт3000:00+11ссз119589 0.0 101611
03:00+10ссв119694 0.0 101812
06:00+9всв1197100 0.0 101910
09:00+12вюв228755 0.0 1021275
12:00+16ююв227196 0.0 1021892
15:00+16ююв2367100 0.0 1021788
18:00+14юв237889 0.0 102262
21:00+12ююв358896 0.0 102286
1 октября, сб
сб100:00+12ююв378798 0.0 1022180
03:00+11ююв368872 0.0 1021161
06:00+11ююв378899 0.0 1021172
09:00+12ююв378555 0.0 1021269
12:00+15ю4774100 0.0 1020451
15:00+17ююв4870100 0.1 1018653
18:00+16ююв41077100 0.0 1018306
21:00+15ю41283100 0.5 1016500
2 октября, вс
вс200:00+14ююв41183100 0.3 1015364
03:00+13ююв4118897 0.3 1014329
06:00+13ю51294100 0.0 1014357
09:00+15ю61483100 0.3 1012614
12:00+16ююз61183100 0.1 1011616
15:00+16юз41087100 1.3 1011518
18:00+15з269213 1.0 1011189
21:00+13зюз119499 1.2 101111
3 октября, пн
пн300:00+13юз119345 0.0 101210
03:00+12ююз009499 0.0 101210
06:00+14ююв2497100 0.7 1012101
09:00+16юв478844 0.9 1012273
12:00+20ююв6106464 0.0 1013755
15:00+20ююв61157100 0.0 1013657
18:00+17ююв71559100 0.0 1014546
21:00+16ююв71555100 0.0 1015673